Regional Weather Roundup
Issued by NWS

Home | Current Version | Previous Version | Text Only | Print | Product List | Glossary On
Versions: 1 2 3 4 5 6 7 8 9 10 11 12 13 14 15 16 17 18 19 20 21 22 23 24 25 26 27 28 29 30 31 32 33 34 35 36 37 38 39 40 41 42 43 44 45 46 47 48 49 50
000
ASUS42 KKEY 060210
RWRKEY

FLORIDA REGIONAL WEATHER ROUNDUP FOR THE FLORIDA KEYS
NATIONAL WEATHER SERVICE KEY WEST FLORIDA
1000 PM EDT TUE MAY 05 2015

...SOUTH FLORIDA AND THE KEYS...

CITY           SKY/WX    TMP DP  RH WIND       PRES   REMARKS
FORT MYERS     MOCLDY    73  66  78 NE9       30.07R
SW REGIONAL AP MOCLDY    74  66  76 NE8       30.08R
NAPLES         MOCLDY    74  65  73 NE7       30.06R
MIAMI          LGT RAIN  72  65  78 NE8       30.06R
WEST KENDALL   PTCLDY    74  66  76 N6        30.05R
HOMESTEAD      PTCLDY    73  68  85 NE3       30.05R
MARATHON       CLOUDY    75  69  81 E6        30.06R
BOCA CHICA NAS MOCLDY    74  67  78 NE7       30.06R
KEY WEST INTL  MOCLDY    74  67  78 NE6       30.06R

...INTERNATIONAL WEATHER...

CITY           SKY/WX    TMP DP  RH WIND       PRES   REMARKS
NASSAU BAHAMAS CLOUDY    75  70  83 SE3       30.06R
CANCUN MEXICO  CLEAR     79  70  73 E9        29.98R
COZUMEL MEXICO PTCLDY    75  72  88 CALM      29.97R

ADJACENT COASTAL WATERS...

STATION/POSITION TIME  SKY/WX   TEMP    WIND        PRES    WAVE
                                AIR SEA DIR/SP/G            HT/PER
                 (UTC)          (F)     (DEG/KT/KT) (MB)    (FT/S)
PULASKI SHOAL LI 0100            77     100/ 15/ 17 1017.2R
SAND KEY         0150            76      80/ 14/ 16 1017.7R
SOMBRERO KEY     0200            76      70/ 11/ 12 1018.4R
LONG KEY         0100            75 76   50/  9/ 10 1018.1R
MOLASSES REEF    0200            75 79   20/  8/  9 1017.9R
FOWEY ROCKS      NOT AVBL

$$


USA.gov is the U.S. government's official web portal to all federal, state and local government web resources and services.